La Barousse Balès - 10/08/2014

Cyclosportive 117 Km


Pl Do. Nom - Surname Prénom - Name S-Cat /cat Club - Team TEMPS - Time Km/h /sx
1 660 FLORES GERAUD MA 1 NL 03:38:36 32,1 1
2 318 DELORT MICHAËL MA 2 NL 03:41:27 31,7 2
3 679 TORRES FRANÇOIS MC 1 ST-GO COMMINGES 03:42:28 31,6 3
4 718 ABELLA JEAN MICHEL MC 2 NL 03:42:29 31,6 4
5 648 CAUBET NICOLAS MB 1 UNION VELOCYPÉDIQUE 03:45:04 31,2 5
6 632 COUTINNO AUGUSTE MD 1 ST-GO CYC 03:46:53 30,9 6
7 677 GODICHAUD MATTHIEU MB 2 UVCA TROYES 03:46:55 30,9 7
8 455 DIMNET THOMAS MB 3 EC MONTESQUIEU 03:46:55 30,9 8
9 494 HALL STEVEN MC 3 NL 03:47:10 30,9 9
10 498 MANFE FABIEN MB 4 ACCRO VELO 03:49:26 30,6 10
11 362 BRUNE THOMAS MA 3 BALMA VELO SPRINT 31 03:49:26 30,6 11
12 421 DELMAS FABIEN MB 5 GUIDON VERDUROIS 03:49:30 30,6 12
13 576 HENLEY SIMON MB 6 TEAM COLEY CYCLES 03:49:33 30,6 13
14 608 LACAZE GUILLEM MA 4 COCHONOU RACING 03:49:49 30,5 14
15 491 AMESTOY XABI MA 5 CV RACIN TEAM 03:51:16 30,4 15
16 512 ADON BENJAMIN MA 6 A.SOISY ENGHIEN LA BARRE 03:51:19 30,3 16
17 701 SAUBERE CHRISTOPHE MC 4 TEAM CYCLISTE MARTAIS 03:52:47 30,2 17
18 407 MIEYAN FRANCK MC 5 CV LANNEMEZAN 03:53:07 30,1 18
19 726 FENASSE DAMIEN MA 7 TOAC TOULOUSE 03:54:04 30,0 19
20 638 EYCHENNE THIERR MD 2 NL 03:54:05 30,0 20
21 545 LAURENT ALEXIS MA 8 CO CARBONNE 03:55:35 29,8 21
22 634 GANZA LUDOVIC MB 7 VS MONTALBANNAIS 03:55:36 29,8 22
23 448 SENTENAC PASCAL MB 8 COUSERANS CYCLISTE 03:55:36 29,8 23
24 699 BOSCHET PASCAL MB 9 NL 03:55:38 29,8 24
25 735 SENGES THIERY MC 6 LE FOUSSERET 03:55:40 29,8 25
26 630 DUPUY FLORIAN MA 9 NL 03:56:21 29,7 26
27 506 ESTAY ANTHONY MB 10 VC COTE D'ARGENT 03:56:34 29,7 27
28 345 BONNET JEAN-LUC MC 7 BALMA VELO SPRINT 31 03:57:00 29,6 28
29 629 CARAMES JEAN-MANUEL MB 11 NL 03:57:02 29,6 29
30 478 ARMESTOY FABIEN MA 10 SUD TRIATHLON PERFORMANCE 03:57:44 29,5 30
31 380 SARTORE SÉBASTIEN MC 8 AC APPAMEEN 03:57:44 29,5 31
32 368 HEBRARD EMMANUEL MB 12 CC CASTANEEN 03:57:51 29,5 32
33 653 LABASSA FABRICE MC 9 DEJANTES 03:58:30 29,4 33
34 683 ROUSSE FABRICE MB 13 NL 03:58:34 29,4 34
35 440 GATTONI NICOLAS MC 10 ROUE LIBRE SAMAN 03:58:34 29,4 35
36 384 LAFLEUR BENJAMIN MA 11 ASS CYCLISTE FOUSSERET 04:00:54 29,1 36
37 574 BAYLE LAURENT MC 11 VC COTE D ARGENT 04:00:55 29,1 37
38 676 RICAUD MATHIEU MA 12 AC BAGNERES 04:01:46 29,0 38
39 495 THEBEAU SÉBASTIEN MB 14 NL 04:01:52 29,0 39
40 523 REBOLLO VICIEN MB 15 TEAM BAROUSSE 65 04:01:58 29,0 40
41 406 COURRIAN BRUNO MC 12 TEAM FARGUES CYCLES GUEREAU 04:02:53 28,9 41
42 503 ABADIE PHILIPPE MA 13 NL 04:02:54 28,9 42
43 312 BOURILLON FREDERIC MC 13 AVIRON BAYONNAIS 04:03:38 28,8 43
44 655 RUIZ GAUTHIER MA 14 NL 04:04:04 28,8 44
45 486 SAJAS PATRICK MC 14 ST-GAUDENS CYCLISME 04:04:05 28,8 45
46 497 ASQUIE NÉAL MA 15 ACCRO VELO SPORT NATURE 04:04:06 28,8 46
47 703 DANIS FABIEN MA 16 NL 04:04:40 28,7 47
48 589 ECHE THIERRY MB 16 NL 04:04:53 28,7 48
49 502 DUPONT GEOFFREY MA 17 LOURDES TRIATHLON 04:04:53 28,7 49
50 647 TRUQUET CED MB 17 US AVIATION 04:05:39 28,6 50
51 371 ROUSSOULY NICOLAS MA 18 NL 04:05:39 28,6 51
52 381 RUIZ ALEX MB 18 NL 04:05:40 28,6 52
53 663 DUBOURDIEU FRANC MD 3 ASS CYCLISTE FOUSSERET 04:05:40 28,6 53
54 332 GONCALVES GILLES MD 4 LECLERC CYCLO SPORT TONNEINS 04:07:07 28,4 54
55 603 AIROLDI LAURENT MC 15 CC LUSSAN 04:07:15 28,4 55
56 674 AUREOLIA STEPHANE MC 16 CONDON 32 04:08:22 28,3 56
57 322 ROURA EDOUARD MY 1 MURET CYCLISTE 04:08:22 28,3 57
58 469 MAZET CHRISTOPHE MC 17 COUSERANS CYCLISTE 04:08:23 28,3 58
59 475 DECAMPS FABIEN MA 19 ST GAUDENS 04:08:43 28,2 59
60 505 POTIE CORENTIN MB 19 CPRS 04:09:17 28,2 60
61 424 PENOT XAVIER MC 18 BALMA VELO SPRINT 31 04:09:20 28,2 61
62 698 TORRES PHILIP MC 19 CVCC 04:09:21 28,2 62
63 730 PAGES ERIC MC 20 NL 04:09:21 28,2 63
64 636 DUSSAUD MICHEL MD 5 CC CARS 04:11:28 27,9 64
65 555 LLORET MICHEL ME 1 NL 04:11:29 27,9 65
66 722 SEVIN DORIAN MB 20 PERSEVERENCE CYCLISME 04:11:31 27,9 66
67 515 GALLES GUILLAUME MB 21 GRINTA TEAM 04:11:34 27,9 67
68 696 LABORDE PATRICK MC 21 US PLAISANCE 04:12:29 27,8 68
69 550 MAUGER LIONEL MB 22 VCC ASPET 04:12:33 27,8 69
70 433 COUDERT ROMAIN MA 20 US COLOMIERS CYCLISME 04:12:34 27,8 70
71 351 CHEDOTAL RÉGIS MC 22 PASS CYCLOSPORTIVE 04:12:35 27,8 71
72 374 SEIGNEUR MAXIIME MA 21 PASS CYCLISME D1 04:12:35 27,8 72
73 416 BEDEL GERALD MF 1 CC PORTET 04:12:40 27,8 73
74 301 HODIN JEROME MB 23 AS BEAUTIRAN 04:13:19 27,7 74
75 689 TUFFET PHILIPPE MB 24 MIMOSA SPRINT MANDELIEU 04:13:53 27,6 75
76 451 SOUVERVILLE FABIEN MB 25 LONGAGES ESPOIRS 04:14:02 27,6 76
77 522 ESCOUBAS CHRISTOPHE MC 23 NL 04:14:16 27,6 77
78 356 LOUP CHRISTIAN MC 24 VC CASTRAIS 04:14:16 27,6 78
79 728 GERMA XAVIER MC 25 VTT CORNEBARRIEU 04:14:17 27,6 79
80 625 DOTTO JERENIE MB 26 NL 04:14:18 27,6 80
81 717 VERGER FREDERIK MC 26 ASU 04:14:19 27,6 81
82 581 OLLIER JEAN-CHRISTOPHE MC 27 MCC 04:14:52 27,5 82
83 449 MOZAS THIERRY MD 6 AS TESTERINE 04:16:13 27,4 83
84 694 GERMANIER GERARD MD 7 UV MAZAMET 04:17:32 27,3 84
85 372 LANTERNE FRANÇOIS MB 27 NL 04:17:46 27,2 85
86 379 DENYS JEAN-FRANÇOIS MC 28 INTEGRALE ISLE JOURDAIN 04:17:46 27,2 86
87 569 FLOUS GAETAN MA 22 MCC 04:17:47 27,2 87
88 411 CASTEROT JEAN-CLAUDE ME 2 CC LOURDAIS 04:17:51 27,2 88
89 700 SOURBADERE JOEL MC 29 US PLAISANCE 04:17:51 27,2 89
90 532 KOCH CHRISTIAN MC 30 AS MURET 04:17:52 27,2 90
91 366 PRAT QUENTIN MA 23 MONTREJEAU CYCLO CLUB 04:18:02 27,2 91
92 338 LOPEZ ERIC MD 8 CC PYRENEEN 04:18:32 27,2 92
93 496 PECH MARC MC 31 AVENIR CYCLISTE APPAMEEN 04:18:39 27,1 93
94 349 CORREGE JEAN-PHILIPPE MD 9 NL 04:21:00 26,9 94
95 504 ABADIE ROBERT MC 32 NL 04:21:00 26,9 95
96 548 GAILLARD DAVID MB 28 ROUE LIBRE SANAN 04:21:20 26,9 96
97 586 HEBRARD MICHEL MF 2 PINSAGUEL 04:21:20 26,9 97
98 353 ZELLER MANUEL MB 29 NL 04:21:22 26,9 98
99 535 HERVAS STEPHANE MC 33 MONTREJEAU CYCLO CLUB 04:21:22 26,9 99
100 573 CLEMENT JOEL ME 3 VC COTE D ARGENT 04:21:30 26,8 100
101 688 BALLARIN JHON MA 24 NL 04:22:34 26,7 101
102 733 MONTMIRAIL REMI MA 25 NL 04:22:34 26,7 102
103 541 VERSEUX OLIVIER MC 34 CYCLO TOURNEFEUILLE 04:22:36 26,7 103
104 396 ANE JENA-DOMONIQUE MB 30 CC LAUNAGUET 04:23:41 26,6 104
105 716 VERGER THIERY MD 10 AS L'UNION 04:23:41 26,6 105
106 533 GUYOLLOT BERNARD MD 11 NL 04:23:43 26,6 106
107 579 NABOULET CLAUDE MC 35 VCCA BIGANOS 33 04:24:11 26,6 107
108 425 MOLA PIERRE MC 36 VC CANTON ASPET 04:24:25 26,5 108
109 607 MIFURT KEVIN MA 26 NL 04:24:30 26,5 109
110 485 BLANDIN JEAN-PIERRE MC 37 NOUILHAN 04:24:38 26,5 110
111 501 WARD KEITH MA 27 NL 04:24:43 26,5 111
112 458 ACART LOUIS MF 3 NL 04:24:55 26,5 112
113 335 SERVANT EMMANUEL MC 38 PASS CYCLOSPORTIVE 04:25:49 26,4 113
114 329 DEDIEU FRANCK MD 12 AS UNION 04:25:50 26,4 114
115 519 DUPUIS MAXIMILIEN MA 28 NL 04:25:50 26,4 115
116 662 SCHNEIDER JEJE MB 31 V O C ST JULIAN 04:25:50 26,4 116
117 693 SELLES PHILIPPE MD 13 BALMA BOC 04:25:51 26,4 117
118 310 PAYRAULT GERVAIS MD 14 CC CASTANET 04:25:52 26,4 118
119 442 TOURNIER MICHEL MC 39 VTT EVASION LE SEQUESTRE 04:25:52 26,4 119
120 401 GONCALVES MANUEL MC 40 NL 04:25:54 26,4 120
121 551 GLEIZES PHILIPPE MC 41 SOREZE VELO CLUB 04:25:55 26,4 121
122 729 TESSAROTTO GUY MF 4 PIN JUSTARET CPRS 04:26:03 26,4 122
123 479 PARMENTIER CYRIL MA 29 CHASSENEUIL VELO ANIMATION 04:26:42 26,3 123
124 369 LEGUEVAQUES SAMUEL MA 30 NL 04:26:44 26,3 124
125 734 MONTMIRAIL DIDIER MD 15 NL 04:27:40 26,2 125
126 566 SACOURTADE CHRISTIAN MC 42 NL 04:28:14 26,2 126
127 706 BAJON GAETAN MA 31 JOCKEY CLUB 04:28:17 26,2 127
128 705 POUGET JEAN MF 5 US CONDOM 04:28:17 26,2 128
129 552 JAMES ROBERT ME 4 LUCHON LOURON CYCLISME 04:28:34 26,1 129
130 405 TENSOU DENIS MC 43 PASS CYCLOSPORTIVE 04:29:12 26,1 130
131 521 BOTTAREL DIDIER MC 44 TEAM BAROUSSE 65 04:29:24 26,1 131
132 367 CLOVIN DAVID MB 32 NL 04:29:26 26,1 132
133 661 REMAZEILLES JULIEN MB 33 NL 04:30:21 26,0 133
134 691 MONBET JEAN-FRANÇOIS MC 45 INTEGRALE IBCI 04:30:22 26,0 134
135 593 BELLIN THIERRY MC 46 CC BEAUZELLOIS 04:30:23 26,0 135
136 556 TOURNOU STEPHANE MB 34 COUSERANS CYCLISTE 04:30:23 26,0 136
137 540 GAY STEPHANE MC 47 GIRONDIN DE BORDEAUX 04:30:36 25,9 137
138 642 LAMANDE PATRICK MD 16 NL 04:30:42 25,9 138
139 622 FERRARI NICOLAS MB 35 VARILHES TEAM 04:30:42 25,9 139
140 686 BAPTMALE ALAIN ME 5 NL 04:32:11 25,8 140
141 443 ACAP REMY MD 17 COUSERANS CYCLISTE 04:32:13 25,8 141
142 695 ARMENGAUD J.-NOEL MC 48 CC LEZATOIS 04:32:16 25,8 142
143 375 TEIXIDOR LAURENT MB 36 CC COULOMMIERS 04:32:24 25,8 143
144 546 BREL PATRICK MD 18 NL 04:32:33 25,8 144
145 447 PELLEFIGUE ERIC MC 49 INTEGRALE BICYCLE CLUB ISLE JOURDAIN 04:33:05 25,7 145
146 490 BUDD HELEN FW1 1 NL 04:33:06 25,7 1
147 313 CAMUS JAN-MARC MD 19 NL 04:33:10 25,7 146
148 325 BARBOTEU MICKAËL MC 50 TRI OX 04:33:11 25,7 147
149 474 WELSBY PAUL MC 51 NL 04:33:25 25,7 148
150 331 THAIS LAURENT MC 52 NL 04:33:32 25,7 149
151 487 BALFOUR CHRISTOPHER MD 20 NL 04:33:42 25,6 150
152 596 COURROUX STEVE MB 37 CSA13KDP 04:33:53 25,6 151
153 671 MONTAVANI JEREMY MD 21 UC CONDON 04:34:33 25,6 152
154 605 CONDOURE MICKAEL MC 53 NL 04:34:40 25,6 153
155 321 COGNAC ALEXANDRE MA 32 NL 04:34:48 25,5 154
156 389 CALASTRENC FREDERIC MB 38 NL 04:36:03 25,4 155
157 511 AMANOU KARIM MB 39 SARC 04:36:04 25,4 156
158 410 DUCOS JEAN CLAUDE MD 22 COUSERANS CYCLISTE 04:36:04 25,4 157
159 450 BARRERE DIDIER MC 54 CC LOURDAIS 04:36:06 25,4 158
160 543 ABADIE CHRISTIAN MD 23 AC FOUSSERET 04:36:06 25,4 159
161 484 GIGUERRE SYLVAIN MC 55 NL 04:36:07 25,4 160
162 712 CIBAT GUY MD 24 AVENIR CYCLISTE BAGNERESDE BIGORRE 04:36:24 25,4 161
163 611 BLANQUIER DORIAN MB 40 MCC 04:37:22 25,3 162
164 444 LENOEL ERIC MC 56 US DE CAMON 04:37:23 25,3 163
165 488 MADDOX CHRISTINA FW3 1 MODRY EVERGREEN RACING 04:37:26 25,3 2
166 669 DANGLETERRE CYRIL MC 57 NL 04:37:27 25,3 164
167 468 BEYRIA YVES MC 58 SAUBENS CYCLO 31 04:37:29 25,3 165
168 697 FAVEREAU J- JACQUES MD 25 US PLAISANCE 04:37:40 25,3 166
169 561 ASSOUERE GILBERT MD 26 NL 04:37:49 25,3 167
170 684 GUILLON PHILIPPE MD 27 CPRS PIN JUSTARET 04:37:56 25,3 168
171 575 WRIGHT AIMÉE FW1 2 NL 04:38:25 25,2 3
172 652 ROUMAT JORDAN MA 33 EAUZE OLYMPIQUE 04:38:28 25,2 169
173 400 PRISSE THIERRY MD 28 CC FONSORBAIS 04:40:07 25,1 170
174 639 HAUPAIS JEROME MB 41 VCCA BIGANOS 33 04:40:16 25,0 171
175 572 CONGDON DIQ   1 NL 04:40:19 25,0 172
176 692 DUFAU ALAIN MD 29 NL 04:40:19 25,0 173
177 446 BOUSQUET FABRICE MB 42 PASS CYCLOSPORTIVE 04:40:51 25,0 174
178 514 DELMAS HUBERT ME 6 MPY 04:40:52 25,0 175
179 327 FOPPOLO JEAN-MICHEL MC 59 NL 04:41:32 24,9 176
180 595 LETORD CHRISTIAN ME 7 US BAZAS 04:41:32 24,9 177
181 324 BRUNET JEAN-LUC MC 60 INTEGRALE BICYCLE CLUB ISLE JOURDAIN 04:41:42 24,9 178
182 682 SAINT GERMAIN DIDIER MD 30 AVENIR BIZANOS 04:42:18 24,9 179
183 518 DELIEGE LAURENT MC 61 VILLENEUVE CYCLISTE 04:42:20 24,9 180
184 704 CASTET PIERRE MC 62 CO CARBONNE 04:42:33 24,8 181
185 544 ROQUES OLIERS MB 43 CO CARBONNE 04:42:35 24,8 182
186 702 HOUDU VALÉRIE FW2 1 NL 04:42:47 24,8 4
187 452 BONNEMORT STÉPHANE MB 44 NL 04:42:49 24,8 183
188 517 LACAT NICOLAS MB 45 COUSERANS CYCLISTE 04:42:50 24,8 184
189 725 ANDRIEU GERARD MB 46 CAMARADE SPORTS LOISIRS 04:42:50 24,8 185
190 304 BRARD PATRICE MC 63 PEDALE PUCEULOISE 04:42:52 24,8 186
191 714 DUBOSC CHRISTIAN MD 31 NL 04:44:10 24,7 187
192 481 BALDACCHINO BENJAMIN MC 64 PASS CYCLOSPORTIVE 04:44:18 24,7 188
193 580 MAUPOME DANIEL MB 47 LES DEJANTES 65 04:44:38 24,7 189
194 361 ROQUES YVES MC 65 TEAM MONTAGNAC AC 04:45:44 24,6 190
195 377 BEZIAT DAVID MC 66 ASAT LA ROUE VERTE 04:46:29 24,5 191
196 687 TOMBELLE POL MD 32 ROUE LIBRE SAMAN 04:47:25 24,4 192
197 602 CADMOS MICHEL MF 6 GUIDON 04:47:59 24,4 193
198 558 VALETTE PHILIPPE MD 33 CPRS PINS JUSTARET 04:48:27 24,3 194
199 404 FAGEDET PASCAL MC 67 CASTELNAU CYCLO CLUB 04:48:41 24,3 195
200 666 MOREAU VINCENT MD 34 NL 04:48:41 24,3 196
201 434 JEAN DANIEL ME 8 TONNEINS CYCLOTOURISME 04:48:44 24,3 197
202 476 MARKHAM ANDREW MD 35 NL 04:48:45 24,3 198
203 441 FOURCADE DIMITRI MA 34 TEAM GSO 04:48:49 24,3 199
204 588 LAZAYRES JEAN-LOUIS ME 9 NL 04:48:54 24,3 200
205 568 WHITE STEPHEN MD 36 NL 04:50:45 24,1 201
206 395 MICHEL FABIEN MB 48 NL 04:50:59 24,1 202
207 672 TALERTON XAVIER MB 49 NL 04:51:19 24,1 203
208 720 SEVIN FRANCOIS MD 37 SPORT ATHLETIQUE MERIGNAC 04:51:20 24,1 204
209 670 CORDEILLA PATRICE MD 38 CONDON 32 04:51:21 24,1 205
210 350 PARMENTIER DIDIER MD 39 BRUGUIERES VELO CLUB 04:51:34 24,1 206
211 510 SENTIS BERNARD MD 40 CC PORTET 04:51:49 24,1 207
212 333 MAUDIN LÉOPOLD MC 68 AS AMBARESIENNE 04:52:41 24,0 208
213 364 DEJEAN SÉBASTIEN MB 50 NL 04:52:45 24,0 209
214 414 GONCALVES SEBASTIEN MC 69 NL 04:52:45 24,0 210
215 542 SENTENAC CHRISTOPHE MC 70 VC CANTON D'ASPET 04:52:46 24,0 211
216 675 LABOUREL FREDERIC MC 71 TOAC TOULOUSE 04:53:30 23,9 212
217 719 CASTERAN THIERRI MC 72 NL 04:53:32 23,9 213
218 721 CAU J MICHEL MC 73 NL 04:53:32 23,9 214
219 597 GUERINEAUD ALAIN MF 7 MERIGNAC VC 04:53:34 23,9 215
220 385 CORREIA LAURENT MB 51 NL 04:53:35 23,9 216
221 585 VEGAS ANDRE MD 41 NL 04:53:44 23,9 217
222 363 LE POTIER JEAN ME 10 VÉLO CLUB VALLESPIR 04:53:45 23,9 218
223 557 BARON PHILIPPE MB 52 NL 04:54:06 23,9 219
224 373 JACOBE THIBAUT MA 35 TRIATHLON CLUB CARCASSONNAIS 04:54:31 23,8 220
225 590 CHONE FABRICE MC 74 NL 04:54:33 23,8 221
226 560 FERFOGLIA MARION FW1 3 VTT GAGNAC 04:55:42 23,7 5
227 559 FERFOGLIA DIDIER MD 42 NL 04:55:42 23,7 222
228 337 DIMBARBE MICHEL MF 8 AS PYRENEE 04:55:46 23,7 223
229 594 THOMAS CENDRA FW2 2 NL 04:55:48 23,7 6
230 599 FARGES TONY MC 75 CSA 13 RDP 04:56:25 23,7 224
231 460 MEDAN CARLOS MD 43 NL 04:56:31 23,7 225
232 319 MOUREAU GILBERT MD 44 VC AUTERIVE 04:56:31 23,7 226
233 382 SAVIGNOL FRANCIS ME 11 CC PORTESIEN 04:56:32 23,7 227
234 624 PYRONNET SEBASTIEN MB 53 NL 04:56:36 23,7 228
235 724 CONRY ALEXANDRE MA 36 NL 04:56:42 23,7 229
236 673 POUTOU SERGE MD 45 NL 04:56:45 23,7 230
237 402 RELLIER PIERRE MB 54 AC TOURNEFEUILLE 04:56:50 23,6 231
238 370 CASTERAS HERVE MB 55 CANTON D'ASPET 04:56:51 23,6 232
239 646 CHARBONNIER JOEL MC 76 C REALMONTAIS 04:58:41 23,5 233
240 584 FLINN ROBERT MD 46 NL 04:59:15 23,5 234
241 520 PLANCQ ARNAUD MA 37 US MONTAUBAN 04:59:20 23,5 235
242 524 BAVANGER OLIVIER MB 56 NL 05:00:01 23,4 236
243 507 CAZAL DAMIEN MB 57 VTT CLUB AUROIS 05:00:03 23,4 237
244 539 ARNEE SERGE MC 77 NL 05:00:29 23,4 238
245 461 BOUTANT SÉBASTIEN MC 78 AMBAZAC SC 05:00:44 23,3 239
246 357 GUILLER JEAN PAUL MD 47 GSEM TRIATHLON NICE 05:00:44 23,3 240
247 628 DAYRIES CATHERINE FW2 3 NL 05:00:45 23,3 7
248 365 MONTEAU YANNICK MB 58 UC DU REOLAIS 05:00:47 23,3 241
249 732 DESPAUX DENIS MB 59 NL 05:00:50 23,3 242
250 387 GRIMAL DANIEL MD 48 NL 05:01:55 23,3 243
251 309 ASCENCIO CLAUDE MD 49 NL 05:01:59 23,2 244
252 360 ARGENTIN OLIVIER MC 79 BALMA OLYMPIQUE CYCLISME 05:02:25 23,2 245
253 631 BROUSSET FRANCIS ME 12 NL 05:02:54 23,2 246
254 547 REIS JORGE MD 50 ES BLANQUEFORT 05:03:14 23,1 247
255 649 TRUQUET CHARLES ME 13 NL 05:03:14 23,1 248
256 509 ROUGALE JÉRÔME MC 80 NL 05:03:17 23,1 249
257 473 SHAW GARY MB 60 NL 05:04:39 23,0 250
258 397 DEMANGEAT JEAN-PAUL MD 51 SPORT OLYMPIQUE SEYSSOIS 05:05:03 23,0 251
259 554 BAILLET BENOIT MD 52 CC BAZAS 05:05:08 23,0 252
260 415 DELAS MICHEL MF 9 US BAZAS 05:05:09 23,0 253
261 500 BAYLE GUY MC 81 RC THEZE 05:05:29 23,0 254
262 390 SABATIER BERTRAND ME 14 SAUBENS CYCLO 31 05:05:56 22,9 255
263 453 WEISS ALEXANDRE MD 53 CPRS PINS JUSTARET 05:05:59 22,9 256
264 529 COMBIER CATHERINE FW2 4 LA RENAUDIE 05:06:43 22,9 8
265 610 MESTADIER PASCAL MD 54 EC RIBERAC 05:06:44 22,9 257
266 665 SOUCHET BRUNO MC 82 VCCO LA ROCHELLE 05:06:45 22,9 258
267 650 HEULOT MICHEL MD 55 CC LUSSAN 05:06:46 22,9 259
268 537 VOISIN JEAN MC 83 US ST -HERBLAIN 05:06:47 22,9 260
269 623 CARIVEN DIDI MD 56 NL 05:06:48 22,9 261
270 612 LAUGA ALAIN MD 57 LE GUIDON PAVIEN 05:06:48 22,9 262
271 528 SAUPIN FABRICE MC 84 NL 05:06:56 22,9 263
272 483 QUESNEL CHRISTIAN MD 58 ROQUETTE CC 05:08:08 22,8 264
273 591 CUBERTOU ALEXANDRE FW2 5 CCPAYS 05:08:10 22,8 9
274 616 SIMON LAURENT MD 59 NL 05:08:10 22,8 265
275 358 POUMIER JÉRÔME MC 85 UNION SPORTIVE CYCLISTE VAISONNAISE 05:09:07 22,7 266
276 317 PRUD'HOMME JEAN-MICHEL ME 15 NL 05:10:20 22,6 267
277 445 MARCUZ BRUNO MF 10 SEYSSES 05:10:36 22,6 268
278 459 GARROCQ DANIEL MD 60 UC BENE JACQUOISE 05:10:36 22,6 269
279 426 RANGOLINE STÉPHANE MC 86 UC BENE JACQUOISE 05:11:38 22,5 270
280 659 CABANDE WILL MC 87 NL 05:12:20 22,5 271
281 613 OSPITAL ANDRE MD 61 OPTIMAX TRAINING 05:12:37 22,5 272
282 435 MOÏZO MICHEL MF 11 TONNEINS CYCLOTOURISME 05:13:02 22,4 273
283 302 DANDRE PIERRE MC 88 C.C. BOULONNAIS 05:13:25 22,4 274
284 320 RISTORCELLI PAUL ME 16 SALEILLES CYCLO 05:13:25 22,4 275
285 467 CHARLES YVES MC 89 SAUBENS CYCLO 31 05:13:51 22,4 276
286 621 NEUMANN JULIEN MA 38 LUCHON LOURON CYCLISME 05:13:53 22,4 277
287 398 MANCIET ANTHONY MA 39 NL 05:14:33 22,3 278
288 336 LARA-CARRASCO JOSÉ MF 12 CAVIGNAC CLUB 05:14:34 22,3 279
289 323 PEREZ BERNARD ME 17 NL 05:14:37 22,3 280
290 618 BIGOT CYRILLE MB 61 NL 05:14:39 22,3 281
291 577 CLEMENT FREDERIC MB 62 VCCA BIGANOS 33 05:14:47 22,3 282
292 513 MONNIER LAURENT MC 90 UC DU NIVOLET 05:15:24 22,3 283
293 633 LE BOEDEC CEDRIC MB 63 NL 05:15:28 22,3 284
294 598 MARTINEZ RAFAEL MD 62 FCCV ESPAGNE 05:15:29 22,3 285
295 408 AUGEY JEAN-CLAUDE ME 18 TONNEINS CYCLOTOURISME 05:15:30 22,3 286
296 516 VIDAL PATRICE MC 91 GUIDON CRITOURIEN 05:15:40 22,2 287
297 668 FINOS JOEL MD 63 INTEGRALE 05:17:14 22,1 288
298 667 FINOS STEPHANE MB 64 SPLACH TRI 05:17:14 22,1 289
299 678 ZUBIETA JEAN YVES MD 64 NL 05:17:15 22,1 290
300 420 MONTEAU MICHEL ME 19 UC DU REOLAIS 05:17:20 22,1 291
301 565 LAUILHE GUILLAUME MC 92 NL 05:18:13 22,1 292
302 342 HOARAU CLAUDE MB 65 ASS MATRA TOULOUSE 05:18:15 22,1 293
303 341 CHATAIN FRANCIS MD 65 ASS MATRA TOULOUSE 05:18:15 22,1 294
304 429 MELGARES MANUEL MF 13 NL 05:18:18 22,1 295
305 657 PAILLAS PHILIPPE MC 93 VS BAHO 05:18:20 22,1 296
306 499 CLEMENTE GRÉGOIRE MD 66 AVENIR FONSORBAIS OMNISPORTS 05:18:24 22,0 297
307 428 BARBERA PATRICK MD 67 NL 05:18:29 22,0 298
308 609 DUMONT THIERRY MC 94 EC RIBERAC 05:18:46 22,0 299
309 690 SANTIGNAN FRANCIS ME 20 LE FOUSSERET 05:18:47 22,0 300
310 549 BRARD MICHEL MD 68 CC CASTRES 05:19:17 22,0 301
311 306 FAVRE MARYVONNE FW3 2 VC NYON RASPOU TEAM 05:19:18 22,0 10
312 305 FAVRE MICHEL MD 69 V.C. NYON RASPOU TEAM 05:19:35 22,0 302
313 418 MARTIN GRÉGOIRE MA 40 NL 05:19:56 21,9 303
314 376 GRIL MICHEL MF 14 CC CASTANEEN 05:20:12 21,9 304
315 412 LALASSERREL CHRISTIAN MD 70 BALMA OLYMPIQUE CYCLISME 05:20:15 21,9 305
316 643 DROY ERIC MD 71 CR DU DOUAISIS 05:20:21 21,9 306
317 315 BETRAN JEAN-MARC MD 72 NL 05:22:05 21,8 307
318 680 GONTHIER NAD FW2 6 AVENIR BIZANOS 05:23:53 21,7 11
319 617 KOSZALSKI BRUNO MD 73 CC BOULONNAIS 05:23:53 21,7 308
320 378 COSNIER JEAN-PIERRE MF 15 VC AUTERIVE 05:23:56 21,7 309
321 664 SEIGNEURET ANNE FW1 4 NL 05:23:57 21,7 12
322 419 POTDEVIN DAVID MC 95 VELO SPORT PASSION 61 05:24:31 21,6 310
323 656 BERTRANNE PHILIPPE MD 74 NL 05:25:45 21,5 311
324 307 DASSIEU MICHEL MD 75 NL 05:25:59 21,5 312
325 409 BORDIER GERARD MF 16 UC CAMPAN VALLEE 05:26:32 21,5 313
326 472 LAGADIC CHRISTOPHE MC 96 ST-JORY CY 05:26:35 21,5 314
327 339 VIGNES FRANCK MC 97 ASS JSO ODOS 05:26:39 21,5 315
328 564 SAINT-GERMES DIDIER MD 76 JS ODOS 65 05:26:39 21,5 316
329 627 DAYRIES PAUL MA 41 NL 05:29:38 21,3 317
330 626 DAYRIES MARC MC 98 NL 05:29:38 21,3 318
331 563 BONNEAU PIERRE ME 21 NL 05:30:29 21,2 319
332 328 MADIEU STÉPHANE MD 77 NL 05:30:31 21,2 320
333 330 ROUANET JEAN-PIERRE MF 17 TOULOUSE TRIATHLON 05:30:41 21,2 321
334 346 DELMAS JEAN-JACQUES MF 18 MONTREJEAU CYCLO CLUB 05:31:44 21,2 322
335 417 DALIA MICHEL MD 78 CYCLOS SALVETAIN 05:31:54 21,2 323
336 635 ROBIN CATHERINE FW2 7 NL 05:31:59 21,1 13
337 489 MADDOX RANDALL MF 19 MODRY EVERGREEN RACING 05:32:06 21,1 324
338 413 BERTHONNAUD HENRI MD 79 NL 05:34:02 21,0 325
339 439 DO JEAN-MARC ME 22 NL 05:34:04 21,0 326
340 531 ASSEMAT GEORGES ME 23 NL 05:34:15 21,0 327
341 392 MORIN LIONNEL ME 24 ACF LE FOUSSERET 05:34:16 21,0 328
342 388 PECHBERTY MATTHIEU MD 80 NL 05:34:20 21,0 329
343 343 SOUPIER DIDIER MC 99 ASS MATRA TOULOUSE 05:34:24 21,0 330
344 326 LATIL BERTRAND ME 25 ISSY VELO CLUB 05:34:25 21,0 331
345 457 BOND ANDREW MC 100 NL 05:36:11 20,9 332
346 470 GUIU BERNARD MC 101 NL 05:37:19 20,8 333
347 711 FILIPIAK DANIEL ME 26 NL 05:37:21 20,8 334
348 731 AUBERT PIERRE MD 81 NL 05:37:21 20,8 335
349 582 SUDERIE MICHEL MF 20 NL 05:37:52 20,8 336
350 587 LAMARQUE CHRISTIAN MD 82 NL 05:38:19 20,7 337
351 723 DEBAT PASCAL MC 102 NL 05:38:29 20,7 338
352 601 LACLAVERE JEROM MC 103 VC MAUVEZIN 05:39:10 20,7 339
353 604 LITZINGER JEAN MARIE MD 83 VC MAUVEZIN 05:39:10 20,7 340
354 614 BOYER ALAIN ME 27 MAUVEZIN 32 05:39:14 20,7 341
355 393 HOULLIER JEAN-CLAUDE MD 84 SAG CESTAS CYCLO 05:41:22 20,6 342
356 391 SERRA LAURENCE FW3 3 SAG CESTAS CYCLO 05:41:22 20,6 14
357 383 BOSC FABRICE MB 66 INTEGRALE ISLE JOURDAIN 05:42:29 20,5 343
358 399 DUBROCA ANDRÉ ME 28 NL 05:43:57 20,4 344
359 348 DUBROCA JEAN-BERNARD ME 29 CC ILLADAIS 05:43:58 20,4 345
360 619 WESTERBEEK HANS MF 21 NL 05:44:54 20,4 346
361 352 VALVERDE JOSEPH MC 104 C.C. SIGEAN 05:45:00 20,3 347
362 658 PLESTANT BERNARD ME 30 NL 05:45:22 20,3 348
363 386 NAIGLIN HERVÉ MC 105 NL 05:45:44 20,3 349
364 456 LESCOS JEAN-BERNARD MD 85 UC LE HAILLAN - ST MEDARD 05:45:45 20,3 350
365 538 BOURDIN MANU MB 67 CCM ETANG DE BERRE 05:46:40 20,2 351
366 477 MARKHAM OWEN MA 42 NL 05:46:41 20,2 352
367 534 SOLE GOMEZ JAVIER MC 106 TARRAGONA 05:46:41 20,2 353
368 465 GINER BRUNO MD 86 SAUBENS CYCLO 31 05:46:50 20,2 354
369 466 PREPOGNOT BERNARD MF 22 SAUBENS CYCLO 31 05:46:50 20,2 355
370 463 PAUL MARC MD 87 SAUMUR CYCLISME 05:46:50 20,2 356
371 620 GRIFFLIOEN GERRIT ME 31 CC BOULONNAIS 05:48:00 20,2 357
372 403 RELLIER RENÉ MF 23 COLOMIERS 31 05:48:05 20,2 358
373 314 SEMENT JEAN-PIERRE MF 24 US PLAISANCE CYCLISME 05:48:17 20,2 359
374 536 MANUZZO TINO MF 25 PECHBONNIEU 05:49:08 20,1 360
375 493 LARIE JOSEPH MD 88 CC LEGUEVIN 05:49:55 20,1 361
376 344 DEL FABBRO MARC MD 89 NL 05:50:04 20,1 362
377 592 BELLIN ANDRE MB 68 FFCT BEAUZELLE 05:53:29 19,9 363
378 567 WHITE SUZANNE FW3 4 NL 05:54:51 19,8 15
379 462 NOGUES MICHEL MD 90 CC LOURDAIS 05:54:52 19,8 364
380 427 BELLON DANIEL MF 26 NL 05:54:52 19,8 365
381 355 MAROTINE THIERRY ME 32 NL 05:55:25 19,8 366
382 526 ONEILL FRAN MA 43 TOULOUSE TRIATHLON 05:57:30 19,6 367
383 525 JONES HYWEL MB 69 TOULOUSE TRIATHLON 05:57:30 19,6 368
384 394 LLORET DENIS MC 107 NL 05:58:33 19,6 369
385 715 DUPUY BERNARD MD 91 LA ROUE LIBRE HOUSSAISE 05:58:55 19,6 370
386 713 LAPUYADE DIDIER MD 92 NL 05:58:56 19,6 371
387 480 AUMONT PASCAL MC 108 NL 06:00:04 19,5 372
388 347 BAIOTTO ANGEL MF 27 VELO SPRINT ST-ORENS 06:00:06 19,5 373
389 685 POUEYMIRO RICHARD MD 93 CC PONTACQ 06:05:01 19,2 374
390 606 LETUE ERIC MC 109 VC LANNEMEZA 06:05:06 19,2 375
391 308 BESSON JACQUELINE FW3 5 STADE TOULOUSAIN CYCLIME 06:06:28 19,2 16
392 583 TISSERAND JACQUES ME 33 NL 06:06:30 19,2 376
393 562 BESSON BRUNO MD 94 NL 06:06:31 19,2 377
394 437 ASTIER LAURENT MC 110 ASSM ST MEDARD EN JALLES 06:06:36 19,1 378
395 438 ASTIER ISABELLE FW2 8 ASSM ST MEDARD EN JALLES 06:06:37 19,1 17
396 645 MARTIN YANNICH MC 111 NL 06:07:53 19,1 379
397 644 MOREL NICOLAS MB 70 CC LA FORCLAZ 06:07:53 19,1 380
398 482 SOULASSOL CHRISTIAN MD 95 NL 06:13:13 18,8 381
399 640 PUYSSEGUR JEAN LOUIS MC 112 NL 06:13:55 18,8 382
400 508 SOULA ALAIN MD 96 CC PORTET 06:16:28 18,6 383
401 654 BERAGNE DIDIER ME 34 NL 06:16:59 18,6 384
402 454 SCHAMM DIDIER MD 97 NL 06:17:01 18,6 385
403 464 DARBAS JACQUES ME 35 SAUBENS CYCLO 31 06:20:05 18,5 386
404 432 THESEE GUILLAUME MA 44 NL 06:26:20 18,2 387
405 431 SEVERIN JOSEPH MD 98 NL 06:26:21 18,2 388
406 430 SEVERIN NICOLAS MA 45 NL 06:26:22 18,2 389
407 641 BOUSSIERE PATRICK MB 71 NL 06:29:52 18,0 390
408 530 CAZEMAGES CHRISTOPHE MC 113 NL 06:29:54 18,0 391
409 615 BABEL RENE ME 36 CC VALENTINE 06:32:34 17,9 392
410 578 SOLAZ LAURENT MB 72 CV MONTASTRUC 06:33:22 17,8 393
411 359 GIRAUDO PIERRE MD 99 NL 06:42:42 17,4 394
412 570 ROLFE JAN FW3 6 NL 06:54:48 16,9 18
413 727 GOUZE FABRICE MC 0 TEAM CAMPUILARD 00:00:00 Abd Abd
414 707 DIMBARBE NICOLA MB 0 NL 04:55:46 Abd Abd
415 709 EPPINGER CHRISTOPHE MD 0 AS CREDIT MUTUEL MIDI ATLANTIQUE 04:57:10 Abd Abd
416 710 CHAVAN VALÉRIE FW2 0 AS CREDIT MUTUEL MIDI ATLANTIQUE 04:57:11 Abd Abd
417 637 MARTIN MICHEL MF 0 C EURANNAIS 05:05:23 Abd Abd
418 651 BELIN DIDIER MD 0 NL 05:31:03 Abd Abd
419 708 MIQUEL DANIEL MD 0 AC FOUSSERET 05:50:02 Abd Abd